Regional Weather Roundup
Issued by NWS Albany, NY

Home | Current Version | Previous Version | Text Only | Print | Product List | Glossary On
Versions: 1 2 3 4 5 6 7 8 9 10 11 12 13 14 15 16 17 18 19 20 21 22 23 24 25 26 27
000
ASUS41 KALY 291110
RWRALY

NEW YORK STATE HOURLY WEATHER ROUNDUP
NATIONAL WEATHER SERVICE ALBANY NY
700 AM EDT FRI JUL 29 2016

NOTE: "FAIR" INDICATES FEW OR NO CLOUDS BELOW 12,000 FEET WITH NO
SIGNIFICANT WEATHER AND/OR NO OBSTRUCTIONS TO VISIBILITY.

NYZ032-033-038>043-046>054-057>066-NYZ062>081-082-084-291200-
EAST


CITY           SKY/WX    TMP DP  RH WIND       PRES   REMARKS
ALBANY         CLOUDY    69  67  93 N5        29.88R
GLENS FALLS    CLOUDY    68  65  90 N3        29.89R
POUGHKEEPSIE   LGT RAIN  72  67  84 S3        29.85R
NEWBURGH       LGT RAIN  70  70 100 E7        29.88R FOG
MONTGOMERY     LGT RAIN  72  70  93 NW3       29.86R FOG
WHITE PLAINS   LGT RAIN  69  66  90 NE6       29.86R FOG
ISLIP          LGT RAIN  71  68  90 N9        29.83R FOG
NEW YORK CITY  LGT RAIN  72  69  90 NE15      29.83S
CENTRAL PARK   LGT RAIN  71  68  90 VRB6      29.87R FOG
$$

NYZ005>009-017-018-044>046-055-056-291200-
CENTRAL


CITY           SKY/WX    TMP DP  RH WIND       PRES   REMARKS
FULTON         MOSUNNY   72  67  84 N9        29.90R
SYRACUSE       MOSUNNY   67  67 100 SW3       29.89R
ROME           SUNNY     66  64  93 CALM      29.90R
ELMIRA         CLEAR     64  59  83 SW5       29.91R
BINGHAMTON     MOSUNNY   67  62  84 NE5       29.91R
MONTICELLO     CLOUDY    66  64  94 E3        29.92R
$$

NYZ026>034-041>043-087-291200-
NORTH


CITY           SKY/WX    TMP DP  RH WIND       PRES   REMARKS
WATERTOWN      MOSUNNY   65  59  81 NE9       29.93R
FORT DRUM      NOT AVBL
MASSENA        SUNNY     64  58  80 N6        29.96R
SARANAC LAKE   PTSUNNY   63  59  87 CALM      29.96R
PLATTSBURGH    CLOUDY    67  60  78 NW6       29.92R
$$

NYZ001>004-010>016-019>021-085-291200-
WEST


CITY           SKY/WX    TMP DP  RH WIND       PRES   REMARKS
NIAGARA FALLS  CLOUDY    73  67  81 NE8       29.92R
BUFFALO        CLOUDY    69  64  84 E5        29.93R
DUNKIRK        CLEAR     64  63  96 CALM      29.93R
JAMESTOWN      MOCLDY    64  61  88 CALM      29.97R VSB 1/4
WELLSVILLE     FOG       63  62  97 CALM      29.98R VSB<1/4
ROCHESTER      MOCLDY    69  65  86 N5        29.93R
PENN YAN       CLEAR     68  61  78 CALM      29.93R
$$

             KEY
       WCI = WIND CHILL INDEX
       VSB = VISIBILITY
       HX  = HEAT INDEX
$$




USA.gov is the U.S. government's official web portal to all federal, state and local government web resources and services.